Dewpoint
56 53 52 49 50 47 44 44 25 33 34 30 30 28 22 30 28 28 28 29 29 30 31 35 39 37 26 29 25 30 34 26 32 27 28 41 55 56 56 57 58 58 58 59 59 60 61 64 64 64 65 66 66 66 66 66 66 66 66 67 67 67 67 67 68 68 68 68 69 69 69 69 70 70 70 71 70 70 70 70 70 70 70 70 70 70 70 69 69 69 69 69 69 69 69 69 69
54 54 51 51 50 42 40 40 31 25 30 26 27 29 28 31 27 27 27 31 32 31 33 31 33 34 30 33 29 34 33 34 39 35 46 56 56 55 57 57 57 58 57 58 59 59 59 60 64 64 65 65 66 66 66 66 66 66 67 67 68 68 68 68 68 68 68 68 68 68 69 69 69 70 70 70 70 70 70 70 70 70 70 70 70 70 70 69 69 68 69 69 69 69 69 70 69
54 53 50 51 45 42 42 38 28 26 27 24 29 27 28 24 24 27 30 29 28 30 35 30 30 30 34 34 29 30 32 46 51 55 55 56 52 54 56 57 56 57 58 57 58 58 57 59 63 64 64 65 65 65 65 66 66 66 67 67 68 68 68 68 68 68 68 68 69 69 68 69 69 69 69 70 70 70 70 70 70 70 70 69 69 69 69 69 69 69 69 69 69 69 69 69 69
51 54 52 50 44 43 37 35 31 28 27 26 26 28 24 27 27 31 33 32 29 28 32 28 25 30 25 26 31 34 37 45 52 55 53 54 55 54 57 57 56 57 56 58 58 58 58 60 63 63 64 64 65 65 66 66 65 66 66 67 67 68 68 68 68 68 68 68 69 69 69 69 69 69 69 69 70 70 70 70 70 70 68 69 69 69 69 69 69 69 69 69 69 69 69 69 69
48 54 53 49 40 37 38 35 32 30 27 29 19 25 33 29 30 33 35 34 31 32 32 29 29 30 33 30 31 33 32 47 50 55 54 55 57 56 57 57 57 57 57 57 58 58 58 61 63 63 64 64 64 65 65 65 65 65 66 66 67 68 68 68 68 68 68 69 69 69 69 69 69 69 69 69 70 70 70 70 70 69 69 69 69 70 69 69 68 68 68 68 68 69 69 69 69
49 50 56 45 38 42 37 30 29 25 28 28 21 22 19 28 29 32 31 33 35 35 33 33 31 35 33 35 36 36 42 43 49 55 55 55 57 57 57 57 57 57 57 57 58 59 59 62 63 64 64 64 64 64 64 64 65 66 66 66 66 66 67 68 68 68 68 68 68 69 69 70 69 69 69 69 70 70 70 70 70 69 69 69 69 69 69 69 69 68 68 67 68 69 69 70 70
48 48 47 43 43 40 34 30 29 27 26 25 23 27 25 28 32 33 30 31 30 39 42 39 39 38 36 37 36 46 50 49 52 52 56 56 57 57 57 57 57 57 57 57 57 59 59 63 64 64 64 64 63 64 64 64 65 65 65 66 67 67 67 67 67 68 68 68 69 69 70 69 69 69 69 69 70 70 69 69 69 69 69 69 69 69 69 68 68 69 67 68 68 69 69 70 70
55 44 43 38 38 34 32 31 31 30 29 26 27 26 25 33 36 30 31 28 30 26 35 44 41 37 35 39 35 43 54 59 58 57 57 58 57 57 57 57 56 56 57 57 57 58 59 63 63 64 63 63 63 64 64 65 64 65 65 66 67 68 68 68 68 68 68 69 69 69 69 69 69 69 69 69 69 70 69 69 68 69 68 68 69 69 69 69 69 69 69 69 69 68 69 69 70
47 44 45 38 34 35 32 30 31 33 30 32 32 31 36 28 33 34 32 31 35 38 39 43 42 36 39 38 37 43 51 56 58 57 57 58 57 57 58 57 56 56 57 57 57 58 58 62 62 62 63 63 63 64 64 64 65 65 65 66 67 67 67 67 68 68 68 68 68 69 69 69 69 69 69 69 69 69 69 69 69 69 69 68 69 69 68 68 68 69 69 69 69 69 69 69 69
43 42 39 36 36 31 29 28 28 29 32 33 27 26 28 29 29 31 33 32 35 40 39 43 42 35 40 38 41 45 49 55 57 56 56 57 58 58 57 57 57 56 56 57 57 58 58 60 61 61 62 63 63 63 63 63 64 64 65 65 66 66 66 67 67 68 68 68 69 69 69 69 69 69 69 69 69 69 69 69 69 69 69 69 69 68 69 69 70 69 70 68 69 69 69 69 69
37 44 44 38 32 29 30 28 27 28 28 30 28 27 25 25 31 34 35 33 40 36 38 44 40 41 43 43 44 47 55 55 54 54 57 57 58 58 57 56 56 55 57 56 57 57 57 58 59 60 61 61 63 63 63 63 63 64 64 64 65 65 66 66 66 67 67 67 68 68 68 68 69 69 69 69 69 69 69 69 69 69 69 69 69 69 69 69 69 69 69 68 68 69 69 69 68
35 38 39 35 33 31 31 29 31 32 34 31 27 29 27 32 30 29 34 33 38 38 37 43 37 46 43 43 43 49 55 55 56 53 56 57 58 58 56 55 55 55 56 56 55 56 56 56 57 59 60 60 61 62 63 63 63 63 63 64 64 65 65 65 65 66 66 66 66 67 67 67 68 68 68 69 69 69 69 69 69 69 69 69 69 69 69 69 69 69 69 69 69 68 68 69 68
37 38 35 33 33 34 35 33 33 35 32 30 28 27 28 30 28 28 37 38 38 35 36 42 45 45 41 43 45 51 53 54 57 56 56 56 57 57 55 54 55 55 54 54 55 55 55 55 56 56 58 60 60 60 61 62 63 63 63 63 64 64 64 65 65 64 65 65 65 65 65 66 66 66 67 68 68 68 68 68 68 68 69 69 69 69 69 69 69 68 69 69 69 68 69 69 68
38 40 37 33 34 33 33 33 33 31 30 30 31 37 36 32 28 34 37 32 30 33 38 46 48 45 42 41 41 48 54 54 56 57 55 55 54 54 54 53 53 54 54 55 55 55 54 54 55 55 56 57 56 58 59 59 60 62 62 63 63 64 64 64 64 64 64 64 63 63 63 64 65 65 66 66 67 67 67 67 66 67 68 68 68 68 68 68 68 68 69 69 68 68 68 67 67
37 41 35 34 32 30 33 30 31 29 28 28 32 32 28 30 29 32 26 29 28 36 48 49 47 38 35 40 37 45 52 55 56 56 55 54 53 52 53 52 52 52 52 54 55 55 55 55 55 55 54 55 56 56 55 57 58 59 60 61 62 62 62 63 62 62 62 62 61 61 61 62 63 63 64 64 64 65 65 65 64 65 67 67 68 68 68 68 68 68 67 67 68 67 67 66 67
38 36 32 30 29 29 30 31 32 31 30 32 29 30 29 28 29 29 29 28 30 35 43 40 41 36 41 39 39 45 50 55 55 55 53 53 52 52 51 51 51 51 51 52 54 54 55 55 55 55 55 55 55 55 56 55 57 57 58 59 60 60 60 60 60 60 60 60 60 60 59 59 60 61 62 62 62 62 63 63 63 65 67 67 67 68 68 68 68 68 67 67 67 67 67 66 65
39 38 32 31 31 31 31 30 30 26 30 30 29 32 30 30 29 31 34 34 32 31 34 37 41 42 44 42 46 48 49 55 55 53 52 52 51 51 51 51 51 51 53 53 53 54 55 55 55 55 55 55 55 55 55 55 56 57 57 57 58 58 59 59 59 58 58 58 59 58 58 58 59 59 60 60 61 60 60 60 61 63 65 66 67 67 67 67 67 67 67 67 66 66 65 64 64
36 32 32 30 32 31 32 30 29 29 29 29 34 34 30 30 30 30 29 29 31 33 35 35 35 38 42 43 46 50 53 55 53 53 51 50 51 50 48 47 51 53 52 53 53 53 54 55 55 55 55 55 55 56 56 55 55 56 56 56 55 57 58 58 58 58 57 58 57 57 57 58 59 59 60 58 59 59 59 59 60 61 64 65 66 66 66 67 67 67 67 66 65 65 63 65 64
32 32 32 28 32 32 33 32 33 30 29 34 36 36 29 28 30 31 28 28 28 27 28 34 32 32 35 38 44 51 53 52 52 52 51 51 50 50 49 47 49 50 50 51 53 53 54 54 54 55 55 55 55 55 56 56 55 55 55 55 55 56 56 56 56 56 57 58 58 58 58 59 59 59 59 58 59 59 59 59 59 60 61 63 64 65 65 65 65 66 66 65 64 63 63 64 63
32 31 31 31 34 34 32 35 34 35 36 34 34 36 33 32 34 32 27 25 29 27 27 28 30 31 32 37 39 51 52 52 51 51 51 51 50 51 49 48 48 48 49 50 51 52 54 54 55 55 55 55 55 55 55 56 55 55 55 55 56 56 56 56 56 56 57 58 57 58 58 58 58 58 57 54 54 57 59 59 58 58 58 60 61 63 63 62 63 64 64 64 63 63 62 62 62
32 30 29 30 32 33 33 35 38 38 39 36 36 38 35 35 35 30 30 29 28 29 29 28 28 29 32 33 36 47 50 50 50 50 50 50 51 51 51 50 49 49 49 48 48 51 53 54 54 55 55 54 55 55 55 55 55 54 54 54 55 55 55 56 56 56 56 57 57 57 56 55 55 55 55 56 57 58 60 62 62 61 61 62 60 62 63 64 64 64 64 64 64 63 62 63 62
31 31 29 29 30 31 34 33 38 36 39 38 38 38 34 35 32 32 31 28 25 30 31 33 31 31 31 31 33 38 46 50 50 50 50 50 51 51 51 50 50 49 47 46 46 47 52 55 55 55 54 54 55 55 55 55 55 55 55 55 54 55 55 55 55 55 56 56 56 56 56 56 56 55 55 55 56 57 59 61 62 61 61 61 60 62 62 63 63 64 63 63 63 63 63 62 62
29 29 28 31 31 30 31 32 35 36 35 36 36 37 37 35 34 34 31 29 28 32 31 33 34 33 31 32 33 33 37 41 43 46 50 50 50 49 47 48 50 49 43 43 45 47 49 54 54 54 54 54 54 54 54 54 55 55 54 53 54 53 52 52 53 53 55 55 55 56 55 55 54 53 55 54 56 58 60 60 61 61 61 61 61 62 62 62 63 63 63 63 62 61 61 61 61
26 25 25 24 27 29 31 31 32 32 34 33 37 40 35 34 31 35 33 31 31 31 32 32 32 32 35 32 32 31 32 33 35 40 44 45 45 45 46 48 49 46 43 43 43 43 44 48 53 54 54 54 54 53 54 54 54 54 54 52 53 51 52 52 51 52 53 52 53 53 53 53 54 53 55 54 56 56 58 59 60 60 61 61 61 61 61 62 62 62 62 62 61 61 61 60 59
30 28 27 26 25 25 26 29 30 31 33 34 37 34 30 35 32 34 30 29 31 31 31 31 31 31 30 31 30 30 29 30 34 36 40 40 42 45 45 43 43 41 38 39 40 39 39 41 47 52 52 52 52 53 54 53 52 54 52 52 52 52 51 51 51 51 53 52 53 53 53 53 53 54 53 54 54 56 57 58 59 60 60 60 60 60 61 61 61 61 61 61 61 60 60 59 59
28 28 28 27 26 24 26 28 28 28 31 35 33 33 33 33 37 33 32 32 32 30 30 30 31 30 30 29 30 29 28 27 30 34 36 39 40 36 37 35 37 38 39 40 40 40 38 38 43 45 50 51 51 52 53 53 52 52 52 52 51 51 51 51 51 53 53 51 52 53 52 53 53 54 55 54 54 55 54 57 58 59 60 59 59 59 60 61 61 61 61 60 60 60 60 59 58
27 28 27 26 26 25 25 24 25 26 26 31 27 26 26 29 31 27 28 29 35 35 32 32 31 29 29 28 27 25 25 25 27 32 33 35 34 34 36 38 38 38 40 40 40 40 39 38 41 43 46 49 50 50 51 51 51 52 52 51 51 50 50 51 52 53 53 54 54 54 55 55 55 55 56 55 54 54 54 54 57 57 59 59 59 59 59 59 59 60 60 60 60 60 59 59 58
28 27 26 26 27 26 24 23 24 25 24 24 24 23 24 25 31 27 26 31 32 33 33 32 30 29 28 27 24 24 24 25 29 30 30 32 33 35 37 39 40 41 41 41 42 40 39 39 42 43 43 44 45 46 48 50 50 50 51 51 50 51 51 51 52 52 52 53 53 53 54 54 54 55 55 54 54 54 54 53 54 55 57 57 56 57 58 57 57 56 56 55 55 55 55 56 57
29 28 27 27 26 26 26 25 26 26 25 24 24 23 22 23 23 25 26 26 27 27 26 25 25 24 22 22 22 25 25 25 29 29 30 32 35 38 39 40 41 42 42 42 42 40 40 41 43 44 44 45 45 46 47 48 49 50 50 49 51 50 50 51 51 51 52 52 52 51 52 52 53 53 54 54 53 54 53 53 52 51 52 54 54 54 55 55 55 54 54 53 53 53 53 52 52
30 29 27 27 27 26 27 26 26 25 26 26 24 20 20 20 21 22 23 22 22 22 22 22 23 24 23 23 23 25 27 29 29 31 32 35 39 40 40 41 42 42 43 43 42 42 42 43 44 44 44 44 45 46 47 48 48 49 49 49 49 50 50 50 50 51 51 51 51 50 50 50 51 52 52 53 53 53 53 53 53 52 50 51 52 52 53 53 54 53 53 53 52 52 52 51 51
31 30 29 27 25 25 26 25 25 23 24 29 24 20 18 19 19 20 20 21 20 20 20 20 20 23 25 27 26 25 29 30 30 32 34 38 40 41 41 42 43 43 43 43 43 43 44 44 44 44 44 44 45 46 47 48 48 49 49 49 49 49 49 49 49 50 50 50 50 50 50 49 50 50 51 52 52 52 52 52 52 52 51 50 51 51 51 51 52 52 51 52 52 51 51 51 51
30 28 27 26 25 26 25 31 28 22 25 30 23 20 18 19 19 19 20 21 20 19 19 18 18 20 24 25 23 26 28 31 33 34 36 39 41 41 42 42 43 43 43 43 44 44 44 45 45 44 45 45 46 46 47 48 48 48 49 49 49 48 48 48 48 48 48 48 48 48 48 48 49 49 49 50 51 51 51 51 51 51 51 51 51 51 51 50 50 50 50 50 51 51 50 50 50
29 28 25 24 24 25 24 24 28 30 26 27 21 18 20 19 20 20 21 19 17 16 16 17 17 20 23 24 24 27 30 33 35 36 38 40 41 41 42 43 43 44 44 44 44 44 44 44 45 45 45 45 46 47 47 47 49 49 48 48 47 47 47 47 46 46 47 46 46 46 46 46 47 48 47 48 50 49 50 50 50 50 50 50 50 50 50 50 50 50 50 49 49 49 49 49 49
27 26 26 27 26 25 23 23 26 30 26 21 20 20 19 19 19 18 17 20 19 19 18 18 20 20 22 23 25 28 31 33 34 36 38 40 41 41 42 43 43 43 44 44 45 45 45 45 45 45 45 45 46 46 46 46 47 47 47 47 46 46 45 45 45 46 45 45 45 45 45 45 45 45 46 47 48 48 49 48 48 48 49 49 49 49 49 49 49 49 50 50 49 49 49 49 48
28 26 25 26 26 25 24 23 24 21 27 22 20 19 19 19 19 19 19 19 16 15 15 16 16 18 20 21 25 28 30 33 34 37 39 41 41 41 41 41 42 43 44 44 44 44 45 45 45 45 45 45 45 45 45 45 45 45 46 45 44 44 43 44 44 44 43 44 44 43 43 44 43 43 44 45 46 46 47 47 47 47 47 48 48 48 47 47 47 48 48 48 48 47 48 47 46
29 28 28 27 25 25 24 24 23 23 21 21 21 20 19 19 19 19 19 19 18 17 18 18 18 18 17 19 25 27 30 33 36 38 40 41 40 40 39 40 40 41 42 43 43 43 43 44 44 45 45 45 45 45 45 44 44 43 43 43 43 42 42 42 42 42 43 43 42 42 42 42 42 41 42 43 44 44 45 45 45 45 45 46 46 45 46 46 45 45 46 46 46 46 45 44 44
29 29 28 27 27 26 26 26 23 27 25 22 21 21 20 20 20 19 19 20 19 19 19 19 20 20 19 19 23 26 29 33 38 40 40 40 39 39 38 38 39 40 40 41 41 42 42 43 43 43 44 45 44 44 44 43 42 40 40 42 40 38 40 39 41 42 43 43 41 41 41 41 41 40 40 41 41 42 43 43 43 43 43 43 43 43 44 44 44 44 43 43 43 44 43 41 42
29 29 28 27 27 26 26 24 26 32 26 22 23 22 22 21 21 20 20 20 19 19 19 19 19 19 19 21 23 27 31 39 40 40 39 38 38 37 37 37 38 38 39 40 40 40 41 41 42 42 42 43 43 43 43 43 42 42 41 39 38 37 40 40 39 40 41 41 40 39 39 40 40 40 40 40 39 40 40 41 41 41 41 41 42 43 42 41 42 42 42 43 41 41 40 39 40
29 28 28 27 27 27 26 25 27 26 26 23 23 22 22 23 22 21 21 20 20 20 20 19 19 19 20 19 25 30 37 38 39 39 38 37 36 36 36 36 37 37 38 38 38 38 39 40 40 40 40 40 40 41 42 42 41 40 40 39 39 37 37 39 39 38 39 39 38 37 37 38 38 38 38 39 39 39 39 39 39 39 39 39 40 40 40 40 39 40 40 40 40 38 37 38 38
29 28 27 26 27 26 25 27 29 27 25 25 24 22 22 22 21 20 20 20 20 21 22 22 22 20 20 21 27 33 36 37 38 38 37 36 35 35 35 35 36 36 36 36 36 37 37 37 37 37 37 37 38 39 40 40 41 40 40 39 40 40 38 37 37 36 36 36 36 36 36 36 36 36 36 37 37 37 37 37 37 38 38 38 38 37 37 37 37 37 38 38 38 37 36 35 37
30 30 29 28 28 27 27 27 27 29 28 28 24 23 21 22 21 20 21 21 21 22 21 22 23 23 23 27 30 34 36 36 38 37 36 34 34 34 34 34 34 35 35 35 35 35 35 35 34 34 34 33 33 35 39 40 41 40 40 39 38 38 38 36 35 34 33 34 34 34 34 34 34 34 34 35 35 35 35 35 35 35 36 36 37 36 35 36 36 36 36 36 36 35 35 34 35
30 31 29 29 29 28 27 27 26 24 23 25 25 19 20 21 20 19 19 21 21 21 22 20 21 22 23 27 30 35 35 36 37 36 34 33 33 33 33 33 33 33 33 33 32 32 31 30 29 29 28 28 28 28 34 39 40 40 38 37 35 34 33 33 32 30 31 32 31 31 33 33 33 33 34 33 33 34 33 33 33 33 33 33 34 35 35 34 34 34 35 35 35 35 35 34 33
30 30 31 30 29 29 28 26 27 24 23 25 23 20 20 19 19 19 20 21 21 22 24 23 23 23 23 26 30 34 35 37 36 34 33 33 33 32 32 32 31 31 30 29 28 28 28 27 27 26 26 26 25 25 28 30 31 33 35 36 36 34 32 31 32 32 32 32 31 31 31 31 31 30 30 31 31 32 32 31 31 31 32 32 33 33 34 33 33 33 33 34 34 34 34 34 33
30 31 31 30 29 28 28 28 27 25 28 28 27 22 19 19 20 21 22 21 20 21 21 21 20 22 23 27 31 34 35 36 35 32 32 32 32 31 31 30 29 29 28 27 26 25 25 25 25 24 24 24 24 24 24 27 26 26 27 28 29 29 28 27 26 26 28 29 29 29 28 27 26 26 26 26 27 28 29 30 29 30 30 30 31 31 31 31 31 32 33 33 33 34 33 33 33
31 31 31 30 29 28 28 29 27 27 24 23 23 25 20 20 21 20 21 20 20 20 20 20 19 20 22 29 32 34 36 36 33 32 31 31 30 29 29 28 28 27 26 25 24 24 23 23 23 23 22 22 21 23 22 23 26 24 25 25 24 25 25 25 24 24 24 24 24 24 24 23 23 23 23 23 24 25 27 28 28 29 29 29 29 29 29 30 30 31 31 32 33 33 33 33 33
32 31 33 31 32 31 30 27 25 26 21 21 21 24 20 19 21 20 21 21 20 21 21 20 19 20 23 29 32 34 35 34 32 31 30 29 28 28 27 27 26 26 25 25 23 22 22 22 22 21 20 20 20 20 20 20 22 23 22 23 23 23 24 24 23 23 23 22 22 22 22 22 22 22 22 22 22 23 25 26 27 27 27 27 28 26 29 30 32 32 31 30 29 28 29 30 31
37 35 32 31 30 28 27 25 24 24 22 22 24 23 21 18 20 19 20 21 20 20 20 20 19 21 26 30 33 34 33 31 31 29 28 27 26 26 26 25 25 24 23 23 22 20 20 20 19 19 19 19 18 18 18 19 19 20 21 21 21 21 22 22 21 21 21 21 21 21 21 21 22 22 22 22 22 23 23 24 25 25 25 26 27 27 28 30 31 31 31 31 30 30 31 31 31
33 32 32 27 28 26 24 23 25 21 20 22 23 22 22 18 18 19 20 21 21 20 19 18 19 22 26 31 33 33 32 30 28 27 25 25 25 24 24 23 23 22 22 21 21 20 20 19 18 18 17 17 17 17 17 17 18 18 19 20 20 20 20 20 20 20 20 20 20 20 21 21 21 21 21 22 22 22 23 22 23 24 25 26 26 26 26 27 28 30 31 31 31 31 31 31 31
32 30 26 25 23 23 20 23 20 20 20 20 21 22 20 18 18 19 20 20 20 22 22 19 21 23 29 32 33 32 31 28 27 25 25 24 24 23 23 22 21 21 20 20 19 19 18 18 17 17 16 16 16 16 15 16 16 16 17 18 18 19 19 19 19 19 19 19 19 19 19 19 19 20 20 20 20 21 22 22 22 23 23 24 24 26 26 26 27 27 28 29 30 30 31 31 30
31 28 27 25 21 20 18 19 20 20 21 22 19 21 18 19 19 20 18 18 20 21 22 22 24 24 32 32 32 31 29 27 26 25 24 24 23 23 22 21 20 20 19 19 19 19 18 17 16 16 16 16 15 15 14 14 15 15 16 17 17 17 17 17 18 18 18 18 18 18 18 18 18 18 19 19 19 20 21 21 22 22 22 22 23 23 24 25 26 26 26 26 27 28 29 30 31
28 30 28 26 24 19 17 16 16 17 18 19 20 17 17 17 20 20 19 20 20 20 20 22 24 29 32 32 31 30 28 27 25 24 23 23 23 22 21 20 19 19 18 18 18 17 17 16 15 15 14 14 14 14 14 13 13 13 14 15 16 16 16 16 16 17 17 17 17 17 17 17 17 17 18 18 18 19 19 20 20 21 21 21 22 22 22 23 23 25 24 24 26 27 27 27 28
28 29 31 28 25 25 20 16 13 13 14 16 16 19 20 19 24 24 27 30 29 31 29 25 27 32 31 31 30 28 27 26 24 23 22 22 21 21 20 20 18 18 17 17 16 16 16 15 14 13 13 13 13 13 13 13 13 13 13 13 14 15 16 15 15 15 15 16 16 16 15 15 16 16 16 16 17 17 18 19 19 19 20 20 21 21 21 22 22 24 25 25 24 25 26 27 26
27 27 25 27 28 25 24 24 23 22 20 18 22 19 21 22 21 22 26 29 29 30 30 29 30 31 31 30 28 27 25 24 23 23 22 21 21 20 19 18 17 17 16 16 15 15 14 13 12 12 12 13 13 12 12 12 12 12 12 13 13 13 14 14 14 14 14 15 15 15 15 14 15 15 15 15 15 16 16 17 17 18 18 19 19 19 20 20 22 22 23 23 23 24 26 27 27
27 25 27 30 31 29 25 21 22 20 18 18 20 18 18 19 17 22 23 23 27 28 29 30 31 30 29 28 27 25 24 22 22 21 21 20 20 19 18 17 16 15 14 14 13 13 13 14 12 11 11 11 12 12 12 12 12 12 12 12 12 12 12 13 13 13 14 14 14 15 15 14 14 14 14 14 14 14 14 15 15 15 15 16 16 16 17 18 19 20 20 21 21 21 22 24 24
28 27 31 25 23 23 25 23 18 18 18 18 19 19 19 19 18 19 22 24 27 28 29 29 29 29 28 26 25 23 22 21 20 20 20 19 19 18 17 16 14 14 14 13 13 13 12 12 12 12 12 12 12 12 12 12 12 12 12 12 12 12 12 12 13 13 13 13 13 13 14 14 14 14 13 13 13 13 13 13 13 13 14 14 14 14 15 16 17 17 18 19 19 19 19 19 21
33 31 28 30 28 25 23 23 25 22 18 18 18 20 18 21 19 20 19 23 27 28 29 29 29 28 27 25 23 21 20 20 19 19 19 19 18 17 15 14 13 13 13 14 13 13 12 13 13 13 13 13 12 12 12 12 12 12 12 12 12 12 12 11 12 12 12 12 12 12 12 13 14 14 12 12 12 12 12 12 12 12 12 12 12 13 13 14 15 15 15 16 17 16 16 16 18
28 28 27 29 28 31 29 28 24 22 19 19 18 17 18 20 22 21 21 20 26 28 28 28 28 27 26 23 21 20 20 19 19 19 18 18 17 16 15 15 14 13 13 12 12 12 12 13 13 13 12 12 12 12 12 11 11 11 11 11 10 10 11 10 11 11 10 11 11 12 11 11 12 13 12 10 10 11 11 10 11 11 11 10 10 10 11 12 12 13 13 14 14 14 14 14 15
28 28 27 27 26 25 23 21 29 26 23 19 19 17 20 21 24 22 22 21 24 28 28 28 28 26 25 22 21 20 19 19 19 18 18 19 18 18 16 14 12 11 11 11 11 12 12 12 12 12 12 12 12 11 11 11 10 10 9 9 10 10 7 9 10 9 10 10 10 9 10 9 10 11 11 10 9 9 9 9 10 10 10 10 9 9 9 10 10 11 12 14 13 13 12 12 13